www.pogodaiklimat.ru

Погода и климат >> Архив погоды >> Боливия >> Santa Rosa


ПОГОДА в Santa Rosa

  • Прогноз погоды в Santa Rosa
  • Монитор погоды в Santa Rosa
  • Климат города

АРХИВ ПОГОДЫ в Santa Rosa

Время (UTC), дата Ветер
(напр.,м/с)
 
Видим.   Явления Облачность Т
(С)
Тd
(С)
f
(%)
Тe
(С)
Тes
(С)
Комфортность P
(гПа)
Po
(гПа)
Тmin
(С)
Tmax
(С)
R
(мм)
R24
(мм)
S
(см)
15 9.07 Ю 8 15 км 3/0 2000 м
[Ac trans]
+19.0 +12.4 66 +19 +21 1022.4 1002.5
18 9.07 ЮВ 8 15 км 5/1 600 м
[Cu hum Ci fib]
+24.4 +13.8 52 +27 +29 жарко 1022.6 1002.8
21 9.07 ЮВ 8 15 км 6/0 2000 м
[Ac trans]
+21.8 +13.5 59 +25 +25 комфорт 1021.2 1001.5 +14.0
12 10.07 ЮВ 4 15 км 9/0 2000 м
[Ac trans]
+14.5 +10.6 77 +13 +14 1024.7 1004.9 +12.0
15 10.07 ЮВ 8 15 км 6/1 300 м
[Cu hum Ac trans]
+18.0 +10.0 59 +17 +19 1025.7 1005.9
18 10.07 ЮВ 8 15 км ясно +21.0 +10.9 52 +23 +25 комфорт 1023.0 1003.0
21 10.07 ЮВ 4 15 км ясно +21.0 +11.9 56 +23 +24 комфорт 1019.7 1000.0 +22.6
12 11.07 ЮВ 3 15 км ясно +12.5 +10.4 87 +11 +13 1022.2 1002.5 +12.3
15 11.07 ЮВ 5 15 км ясно +15.2 +10.5 74 +14 +20 1023.0 1003.0
18 11.07 ЮВ 3 15 км 5/0
[Ci fib]
+24.0 +14.7 56 +27 +36 жарко 1017.3 997.6
21 11.07 ЮВ 2 15 км 5/0
[Ci fib]
+24.5 +13.6 51 +27 +28 жарко 1014.8 995.2 +26.4
15 12.07 штиль 0 15 км 8/0
[Ci fib]
+24.0 +14.0 54 +26 +40 жарко 1019.2 999.5
18 12.07 ЮВ 2 15 км ясно +29.0 +15.0 43 +32 +44 душно 1015.8 996.2
21 12.07 штиль 0 15 км ясно +29.0 +15.0 43 +32 +33 душно 1014.6 995.0 +29.6
12 13.07 штиль 0 15 км 5/0
[Ci fib]
+16.8 +15.8 94 +17 +19 1017.4 997.7 +14.8
15 13.07 штиль 0 15 км 4/0
[Ci fib]
+26.5 +20.3 69 +33 +48 очень
душно
1018.0 998.2
18 13.07 С 4 15 км 8/0 2000 м
[Ac trans Ci]
+29.5 +20.7 59 +37 +42 очень
душно
1014.6 995.2
21 13.07 СЗ 4 15 км 5/0
[Ci fib]
+30.4 +21.9 60 +39 +40 очень
душно
1012.0 992.6 +32.4
12 14.07 штиль 0 15 км 3/0 2000 м
[Ac trans]
+19.4 +17.3 88 +21 +23 комфорт 1015.0 995.4 +17.3
15 14.07 С 3 15 км 4/0
[Ci fib]
+28.4 +18.2 54 +33 +43 очень
душно
1016.5 997.0
18 14.07 С 8 15 км 1/1 600 м
[Cu hum]
+31.8 +21.2 53 +39 +42 очень
душно
1013.4 994.0
21 14.07 С 4 15 км 1/1 600 м
[Cu hum]
+31.8 +21.2 53 +39 +40 очень
душно
1010.4 991.0 +33.6
12 15.07 штиль 0 15 км ясно +22.2 +20.5 90 +29 +31 очень
душно
1012.3 992.8 +20.6
15 15.07 С 8 15 км ясно +29.4 +23.4 70 +40 +42 очень
душно
1013.7 994.4
18 15.07 С 8 15 км ясно +32.4 +23.0 58 +43 +45 опасность
перегрева
1011.7 992.5
21 15.07 С 3 15 км 1/1 600 м
[Cu hum]
+32.0 +23.0 59 +42 +43 опасность
перегрева
1010.3 991.0 +32.6

 

Местоположение метеостанции Santa Rosa (Боливия): широта -14.17 долгота -66.90 высота над уровнем моря 225 м.

В архиве по умолчанию представлена погода в Santa Rosa за последнюю неделю. Архивные данные за месяц целиком и за предыдущие месяцы, начиная с января 2011 года, Вы можете получить, выбрав интересующий диапазон дат из раскрывающегося списка и нажав кнопку "Ввод!".


*Определитесь, кто Вы:
робот инопланетянин человек

Внимание! Время в таблицах - всемирное. Для получения местного времени необходимо прибавить поправку, которая в Santa Rosa равна -4 ч.

Смотрите также архив погоды в соседних городах и на ближайших метеорологических станциях:

Погода в Reyes (Боливия) (54 км)
Погода в San Borja (Боливия) (77 км)
Погода в Rurrenabaque (Боливия) (78 км)
Погода в San Ignacio De Moxo (Боливия) (162 км)
Погода в Santa Ana (Боливия) (165 км)
Погода в Baures (Боливия) (165 км)
Погода в Trinidad (Боливия) (226 км)
Погода в San Ramon (Боливия) (257 км)
Погода в San Joaquin (Боливия) (257 км)
Погода в Ovejuyo (Боливия) (289 км)

Пояснения к столбцам:

Ветер - указаны скорость ветра в м/с - средняя за 10 мин, порывы в срок и между сроками (в фигурных скобках) и направление, откуда дует ветер: С - северный, СВ - северо-восточный, В - восточный, ЮВ - юго-восточный, Ю - южный, ЮЗ - юго-западный, З - западный, СЗ - северо-западный.
Видимость - горизонтальная дальность видимости в метрах или километрах. При видимости от 1 до 10 км при отсутствии осадков обычно наблюдается дымка, при ухудшении видимости до 1 км и менее - туман. В сухую погоду видимость может ухудшаться дымом, пылью или мглою.
Явления - указаны атмосферные явления, наблюдавшиеся в срок или в последний час перед сроком; фигурными скобками обозначены явления, наблюдавшиеся между сроками (за 1-3 часа до срока); квадратными скобками обозначены град или гололедные отложения с указанием их диаметра в мм.
Облачность - указаны через наклонную черту общая и нижняя облачность в баллах и высота нижней границы облаков в метрах; квадратными скобками обозначены формы облаков: Ci - перистые, Cs - перисто-слоистые, Cc - перисто-кучевые, Ac - высококучевые, As - высокослоистые, Sc - слоисто-кучевые, Ns - слоисто-дождевые, Cu - кучевые, Cb - кучево-дождевые. Подробнее классификацию облаков см. в Атласе облаков (PDF).
T - Температура воздуха - температура, измеренная на высоте 2 м над землей.
Td - Температура точки росы - температура, при понижении до которой содержащийся в воздухе водяной пар достигнет насыщения.
f - Относительная влажность воздуха - влажноcть воздуха, измеренная на высоте 2 м над землей.
Te - Эффективная температура - температура, которую ощущает одетый по сезону человек в тени. Характеристика душности погоды. При расчете учитывается влияние влажности воздуха и скорости ветра на теплоощущения человека.
Tes - Эффективная температура на солнце - температура, которую ощущает человек, с поправкой на солнечный нагрев. Характеристика знойности погоды. Зависит от высоты солнца над горизонтом, облачности и скорости ветра. Ночью, в пасмурную погоду, а также при ветре 12 м/с и более поправка равна нулю.
P - Атмосферное давление - приведенное к уровню моря атмосферное давление.
Po - Атмосферное давление - измеренное на уровне метеостанции атмосферное давление.
Tmin - Минимальная температура - минимум температуры воздуха на высоте 2 м над землей.
Tmax - Максимальная температура - максимум температуры воздуха на высоте 2 м над землей.
R - Количество осадков - Количество выпавших осадков за период времени, мм. При наведении курсора мыши на число - период времени, за который выпало указанное количество осадков.
R24 - Количество осадков - Количество выпавших осадков за 24 часа, мм.
S - Снежный покров - Высота снежного покрова, см. При наведении курсора мыши на число - состояние снежного покрова и степень покрытия местности в баллах.